Regional Weather Roundup
Issued by NWS

Home | Current Version | Previous Version | Graphics & Text | Print | Product List | Glossary On
Versions: 1 2 3 4 5 6 7 8 9 10 11 12 13 14 15 16 17 18 19 20 21 22 23 24 25 26 27 28 29 30 31 32 33 34 35 36 37 38 39 40 41 42 43 44 45 46 47 48 49 50
000
ASUS43 KMPX 232310
RWRMN
WEATHER ROUNDUP FOR MINNESOTA
NATIONAL WEATHER SERVICE TWIN CITIES/CHANHASSEN MN
600 PM CDT THU OCT 23 2014


NOTE: "FAIR" INDICATES FEW OR NO CLOUDS BELOW 12,000 FEET WITH NO
SIGNIFICANT WEATHER AND/OR OBSTRUCTIONS TO VISIBILITY. N/A MEANS
CURRENT SKY AND/OR WEATHER CONDITIONS ARE NOT AVAILABLE.

MNZ060>063-068>070-240000-
   Twin Cities Metro

CITY           SKY/WX    TMP DP  RH WIND       PRES   REMARKS
TWIN CITIES    CLEAR     66  44  45 CALM      29.96R
ST PAUL        CLEAR     61  51  70 SE7       29.97R
CRYSTAL        CLEAR     63  47  55 S3        29.95R
BLAINE         CLEAR     64  46  52 CALM      29.96R
LAKEVILLE      CLEAR     61  43  51 CALM      29.96R
EDEN PRAIRIE   CLEAR     66  42  41 CALM      29.95R
SOUTH ST PAUL  CLEAR     61  51  68 SE5       29.96R
LAKE ELMO      FAIR      59  52  77 S6        29.98R
$$
MNZ001>005-007-008-013>017-022>024-027-028-240000-
   Northwest Minnesota

CITY           SKY/WX    TMP DP  RH WIND       PRES   REMARKS
BEMIDJI        PTCLDY    61  35  38 S5        29.86F
HALLOCK        CLEAR     61  39  44 SW6       29.77S
ROSEAU         PTCLDY    59  43  55 SW6       29.80S
WARROAD        PTCLDY    59  45  58 SW7       29.80S
THIEF RVR FALL CLEAR     61  41  48 S8        29.82S
CROOKSTON      CLEAR     61  43  51 S8        29.81S
FOSSTON        CLEAR     57  39  51 CALM      29.85S
DETROIT LAKES  CLEAR     61  41  48 S7        29.88S
MOORHEAD       CLEAR     64  32  29 S7        29.84S
PARK RAPIDS    CLEAR     57  37  47 S7        29.88F
MAHNOMEN       FAIR      60  38  44 S8        29.85S
$$
MNZ006-009>011-018-025>026-240000-
   North Central Minnesota

CITY           SKY/WX    TMP DP  RH WIND       PRES   REMARKS
BAUDETTE       CLEAR     57  38  48 SW6       29.81S
FLAG ISLAND    CLEAR     57  43  58 SW10      29.77S
INTL FALLS     CLEAR     56  36  47 SW6       29.84R
WASKISH        PTCLDY    57  41  54 CALM      29.84F
BIG FORK       CLEAR     55  43  62 S6        29.88R
LONGVILLE      PTCLDY    63  37  39 CALM      29.90S
GRAND RAPIDS   CLEAR     57  39  51 S5        29.90S
CRANE LAKE     PTCLDY    55  46  71 CALM      29.87S
ORR            CLEAR     57  45  62 S5        29.85S
COOK           CLEAR     55  48  76 S3        29.89S
WALKER         FAIR      62  37  38 S5        29.88S
$$
MNZ012-019>021-037-240000-
   Northeast Minnesota

CITY           SKY/WX    TMP DP  RH WIND       PRES   REMARKS
DULUTH         PTCLDY    53  47  79 S5        29.93S
ELY            CLEAR     52  46  82 S6        29.91R
HIBBING        CLEAR     54  47  77 S6        29.90S
EVELETH        CLEAR     52  46  82 SE3       29.92S
DULUTH HARBOR  CLEAR     54  48  82 CALM      29.94S
TWO HARBORS    MOCLDY    54  39  58 CALM      29.92S
SILVER BAY     PTCLDY    52  48  87 CALM      29.92S
GRAND MARAIS     N/A     48  47  96 CALM      29.95S
G MARAIS ARPRT FOG       43  41  93 CALM      29.94S VSB 1/4
$$
MNZ029>031-032-039>041-046>048-054>057-064-240000-
   West Central Minnesota

CITY           SKY/WX    TMP DP  RH WIND       PRES   REMARKS
FERGUS FALLS   CLEAR     61  36  39 S6        29.87S
WHEATON        CLEAR     63  36  36 S5        29.89S
MORRIS         CLEAR     61  45  55 S6        29.89F
ALEXANDRIA     CLEAR     60  42  51 S7        29.92F
ELBOW LAKE     FAIR      60  41  49 S8        29.89S
WADENA         CLEAR     61  41  48 S5        29.90S
GLENWOOD       CLEAR     59  45  58 S6        29.93S
APPLETON       CLEAR     66  37  34 SW5       29.91S
BENSON         CLEAR     63  41  45 SW5       29.91F
ORTONVILLE     CLEAR     64  43  45 S6        29.90F
MADISON        CLEAR     66  39  37 S6        29.92S
WILLMAR          N/A     66  36  32 CALM      29.95S
$$
MNZ033>034-036-042>043-049>051-058-059-240000-
   Central Minnesota

CITY           SKY/WX    TMP DP  RH WIND       PRES   REMARKS
ST CLOUD       CLEAR     67  37  33 SW5       29.93S
SAUK CENTRE    FAIR      60  41  49 SW3       29.93S
PAYNESVILLE    CLEAR     60  37  42 SE3       29.94S
AITKIN         CLEAR     59  48  67 SE3       29.91R
PINE RIVER     CLEAR     63  43  48 SW3       29.94R
BRAINERD       CLEAR     59  39  47 SW6       29.92S
STAPLES        CLEAR     59  36  41 S5        29.91S
LONG PRAIRIE   FAIR      59  37  44 S3        29.93S
LITTLE FALLS   CLEAR     61  36  39 CALM      29.93R
LITCHFIELD     CLEAR     64  37  36 CALM      29.95S
BUFFALO        CLEAR     64  44  47 CALM      29.96R
MAPLE LAKE     CLEAR     64  43  46 CALM      29.95S
$$
MNZ037-044-045-052-053-240000-
   East Central Minnesota

CITY           SKY/WX    TMP DP  RH WIND       PRES   REMARKS
PRINCETON      CLEAR     61  48  63 SE3       29.94S
MORA           CLEAR     55  45  67 S3        29.96R
CAMBRIDGE      CLEAR     63  48  59 CALM      29.94R
RUSH CITY      PTCLDY    58  47  67 CALM      29.95R
MOOSE LAKE     CLEAR     55  50  82 CALM      29.92R
HINCKLEY       FAIR      59  52  77 CALM      29.95R
CLOQUET        CLEAR     55  48  76 S3        29.94R
MCGREGOR       CLEAR     57  48  72 S5        29.92S
$$
MNZ071>073-080-081-089-090-097-098-240000-
   Southwest Minnesota

CITY           SKY/WX    TMP DP  RH WIND       PRES   REMARKS
MONTEVIDEO     CLEAR     66  39  37 W6        29.93S
GRANITE FALLS  CLEAR     63  41  45 S6        29.94S
CANBY          CLEAR     66  39  36 S3        29.93S
MARSHALL       CLEAR     64  43  45 SW8       29.93S
REDWOOD FALLS  CLEAR     68  35  29 CALM      29.94S
OLIVIA         CLEAR     63  43  48 CALM      29.94S
PIPESTONE      CLEAR     61  46  59 SW6       29.96S
WINDOM         CLEAR     63  37  39 SW5       29.97S
WORTHINGTON    CLEAR     63  43  48 S6        29.98S
JACKSON        CLEAR     63  37  39 SW6       29.99R
TRACY          CLEAR     63  45  51 SW6       29.96S
SLAYTON        CLEAR     61  43  50 S6        29.98S
$$
MNZ065>067-074>077-082>085-091>093-240000-
   South Central Minnesota

CITY           SKY/WX    TMP DP  RH WIND       PRES   REMARKS
MANKATO        CLEAR     66  37  34 CALM      29.96S
NEW ULM        CLEAR     64  41  42 CALM      29.95S
ST JAMES       CLEAR     66  30  26 CALM      29.97S
FAIRMONT       CLEAR     66  32  28 W5        29.97S
GLENCOE        CLEAR     66  43  42 CALM      29.95S
FARIBAULT      CLEAR     55  43  62 CALM      29.97R
OWATONNA       CLEAR     57  39  51 CALM      29.97S
WASECA         CLEAR     61  34  36 CALM      29.98S
ALBERT LEA     CLEAR     64  46  52 CALM      29.98R
$$
MNZ078>079-086>088-094>096-240000-
   Southeast Minnesota

CITY           SKY/WX    TMP DP  RH WIND       PRES   REMARKS
ROCHESTER      CLEAR     54  49  83 SE3       30.00F
RED WING       CLEAR     54  50  87 SE5       29.98R
STANTON        CLEAR     63  51  65 SE7       29.95S
DODGE CENTER   CLEAR     55  52  88 SE7       29.99R
WINONA         CLOUDY    54  52  94 S3        30.01F
AUSTIN         CLEAR     57  52  82 SE3       29.99R
PRESTON        PTCLDY    50  48  93 SE5       30.01S FOG
$$
ABBREVIATIONS USED IN REMARKS
   TC - TEMPERATURES IN CELSIUS
  WCI - WIND CHILL INDEX
   HX - HEAT INDEX
  VSB - VISIBILITY
$$



USA.gov is the U.S. government's official web portal to all federal, state and local government web resources and services.